Location: ??????
(56.0120°N, 39.1740°E)
Time: 21:39:36
(UTC+00:00)

CZ-4 R/B - Pass Details

Date: 14 April 2026
Orbit: 490 x 537 km, 97.5° (Epoch: 11 May)

Event Time Altitude Azimuth Distance (km) Brightness Sun altitude
Rises 18:15:51 0° 206° (SSW) 2,644 4.6 -13.8°
Reaches altitude 10° 18:18:30 10° 226° (SW) 1,752 3.9 -14.0°
Maximum altitude 18:21:06 18° 270° (W) 1,334 3.9 -14.3°
Drops below altitude 10° 18:23:42 10° 314° (NW) 1,743 5.3 -14.6°
Sets 18:26:21 0° 334° (NNW) 2,624 6.2 -14.8°
